COSMOS 1375 DEB, 16205

Orbit data source: Space-Track

COSMOS 1375 DEB, 16205 is space debris in LEO originally from a launch on Sun, 06 Jun 1982 UTC launched from the Plesetsk Missile And Space Complex (PKMTR). Debris objects in space refer to the collection of defunct objects orbiting the Earth. Examples of debris include non-operational satellites, rocket bodies, and fragments generated from explosions, collisions, or faulty payload assembly.

Loading next visibility...
Identifier
16205, 1982-055G
Orbit
LEO
Country
Flag of CISCIS
Related business
Manufacturer
Unknown
Mission
Spacecraft
Bus & Motor
Unknown
Mass
Unknown
Launch date (UTC)
1982-06-06 (44 years ago)
Launch vehicle
Unknown
Launch site
Plesetsk Missile And Space Complex (PKMTR)
Object type
Payload
Rocket body
Debris
Shape & HBR
Unknown shape, 0.3 m
Radar Cross Section
Medium (>0.1 m² and <1 m²)

Expand to show TLE details & history
Last TLE update: 2 days ago

TLE from 2 days ago
0 COSMOS 1375 DEB
1 16205U 82055G   26171.34194833  .00000292  00000-0  35376-3 0  9996
2 16205  65.8246 154.0165 0049304  52.2775  16.7208 13.80385261 38289
Epoch: 2026-06-20T08:12Z
TLE epoch observation values (Epoch: 2026-06-20T08:12:24.335Z)
Latitude
58.61612°
Longitude
169.41457°
Altitude
936.862 km
Speed
7.407 km/s
True Right ascension
13h 24m 17s
True Declination
58° 28' 00"
Sunlit
Object was in daylight at epoch
Visualization orbit readout
Latitude
Unknown
Longitude
Unknown
Altitude
Unknown
Speed
Unknown
Apparent Right ascension
Unknown
Apparent Declination
Unknown
Sunlit
N/A
Visualization observer readout
Local Sidereal Time
23:07:12
Azimuth
Unknown
Elevation
Unknown
Doppler factor
Unknown
Orbital elements
Apogee altitude
997.22 km
Perigee altitude
924.85 km
Semi-major axis
7,339.172 km
Eccentricity
0.00493
Inclination
65.8246°
RAAN
154.0165°
Arg. of periapsis
52.2775°
True anomaly
16.88431°
Mean anomaly
16.7208°
Eccentric anomaly
16.80246°
Mean motion
3.45201 °/min
Orbital period
104.29 mins
BSTAR
0.00035376
Loading maneuver chart data...
Computing Atmospheric mass density...
Loading historical data...
Loading historical data...
Loading historical data...
Loading historical data...
Loading historical data...
Loading historical data...
Loading historical data...

Documentation

Showing up to 5 results
|